Location: Howard City Library
(37.4684°N, 96.2639°W)
Time: 18:44:15
(UTC+00:00)

YAOGAN 1 - Pass Details

Date: 18 February 2020
Orbit: 618 x 621 km, 97.9° (Epoch: 06 April)

Event Time Altitude Azimuth Distance (km) Brightness Sun altitude
Rises 00:31:20 0° 149° (SSE) 2,882 5.8 -5.7°
Reaches altitude 10° 00:33:36 10° 142° (SE) 1,981 4.9 -6.1°
Maximum altitude 00:37:38 40° 72° (ENE) 914 3.0 -6.9°
Drops below altitude 10° 00:41:41 10° 3° (N) 1,995 5.0 -7.7°
Sets 00:43:58 0° 356° (N) 2,905 6.0 -8.2°
